Weather History for Cheyenne, WY

Change the Weather History Date:

Wednesday, March 20, 2013

  Actual Average Record
Temperature  
Mean Temperature 33 °F 37 °F  
Max Temperature 49 °F 49 °F 74 °F (1907)
Min Temperature 16 °F 25 °F -8 °F (1913)
Degree Days  
Heating Degree Days 32 28  
Month to date heating degree days 572 604  
Since 1 July heating degree days 5505 5623  
Cooling Degree Days 0 0  
Month to date cooling degree days 0 0  
Year to date cooling degree days 0 0  
Moisture  
Dew Point 13 °F    
Average Humidity 48    
Maximum Humidity 80    
Minimum Humidity 15    
Precipitation  
Precipitation 0.00 in 0.03 in 0.98 in (1902)
Month to date precipitation 0.31 0.62  
Year to date precipitation 1.19 1.42  
Snow  
Snow 0.00 in 0.40 in 6.80 in (1902)
Month to date snowfall 4.2 7.0  
Since 1 July snowfall 42.6 43.5  
Snow Depth 0.00 in    
Sea Level Pressure  
Sea Level Pressure 30.03 in    
Wind  
Wind Speed 12 mph (SW)    
Max Wind Speed 21 mph    
Max Gust Speed 26 mph    
Visibility 10 miles    
Events      
T = Trace of Precipitation, MM = Missing Value Source: NWS Daily Summary

Daily Weather History Graph

Daily Weather History Graph

Search for Another Location

Airport:

Trip Planner

Search our weather history database for the weather conditions in past years. The results will help you decide how hot, cold, wet, or windy it might be!

Date:

Astronomy

Mar. 20, 2013 Rise Set
Actual Time 7:02 AM MDT 7:11 PM MDT
Civil Twilight 6:34 AM MDT 7:39 PM MDT
Nautical Twilight 6:02 AM MDT 8:11 PM MDT
Astronomical Twilight 5:29 AM MDT 8:44 PM MDT
Moon 12:46 PM MDT (3/20) 2:46 AM MDT (3/20)
Length of Visible Light 13h 04m
Length of Day
12h 09m
First Quarter, 60% of the Moon is Illuminated
Mar 20
First Quarter
Mar 27
Full
Apr 2
Last Quarter
Apr 10
New
Apr 18
First Quarter

Hourly Weather History & Observations

Time (MDT) Temp. Windchill Dew Point Humidity Pressure Visibility Wind Dir Wind Speed Gust Speed Precip Events Conditions
12:53 AM 17.1 °F 5.8 °F 12.0 °F 81% 30.37 in 10.0 mi SW 9.2 mph - N/A   Clear
1:53 AM 17.1 °F 5.8 °F 12.9 °F 84% 30.34 in 10.0 mi SW 9.2 mph - N/A   Clear
2:53 AM 18.0 °F 7.7 °F 12.9 °F 81% 30.29 in 10.0 mi SSW 8.1 mph - N/A   Clear
3:53 AM 19.0 °F 4.5 °F 14.0 °F 81% 30.24 in 10.0 mi SW 16.1 mph - N/A   Clear
4:53 AM 19.0 °F 6.1 °F 12.9 °F 77% 30.23 in 10.0 mi SW 12.7 mph - N/A   Clear
5:53 AM 18.0 °F 4.8 °F 12.9 °F 81% 30.21 in 10.0 mi SW 12.7 mph - N/A   Clear
6:53 AM 18.0 °F 5.4 °F 12.9 °F 81% 30.28 in 10.0 mi SW 11.5 mph - N/A   Clear
7:53 AM 21.0 °F 8.1 °F 15.1 °F 78% 30.26 in 10.0 mi SW 13.8 mph - N/A   Clear
8:53 AM 25.0 °F 15.5 °F 16.0 °F 69% 30.23 in 10.0 mi South 9.2 mph - N/A   Clear
9:53 AM 30.0 °F 19.5 °F 17.1 °F 59% 30.18 in 10.0 mi South 13.8 mph - N/A   Clear
10:53 AM 34.0 °F 23.4 °F 15.1 °F 46% 30.12 in 10.0 mi SSW 17.3 mph - N/A   Clear
11:53 AM 37.9 °F 30.0 °F 14.0 °F 38% 30.07 in 10.0 mi South 12.7 mph - N/A   Clear
12:53 PM 41.0 °F 33.5 °F 12.9 °F 32% 30.03 in 10.0 mi SSW 13.8 mph - N/A   Clear
1:53 PM 39.9 °F 32.1 °F 14.0 °F 35% 30.00 in 10.0 mi SSW 13.8 mph - N/A   Mostly Cloudy
2:53 PM 43.0 °F 35.1 °F 12.0 °F 28% 29.94 in 10.0 mi SSW 17.3 mph 21.9 mph N/A   Mostly Cloudy
3:53 PM 48.9 °F - 3.9 °F 16% 29.87 in 10.0 mi South 15.0 mph - N/A   Overcast
4:53 PM 46.0 °F 41.9 °F 1.0 °F 16% 29.88 in 10.0 mi SSW 8.1 mph - N/A   Overcast
5:53 PM 46.9 °F - 6.1 °F 19% 29.85 in 10.0 mi WSW 5.8 mph - N/A   Mostly Cloudy
6:53 PM 44.1 °F 36.5 °F 8.1 °F 23% 29.87 in 10.0 mi SSW 17.3 mph - N/A   Overcast
7:53 PM 39.9 °F 33.4 °F 6.1 °F 25% 29.85 in 10.0 mi South 10.4 mph - N/A   Scattered Clouds
8:53 PM 44.1 °F 39.5 °F 17.1 °F 34% 29.80 in 10.0 mi SSE 8.1 mph - N/A   Partly Cloudy
9:53 PM 43.0 °F 36.8 °F 18.0 °F 37% 29.77 in 10.0 mi West 11.5 mph 19.6 mph N/A   Mostly Cloudy
10:53 PM 44.1 °F 36.8 °F 21.9 °F 42% 29.73 in 10.0 mi West 16.1 mph - N/A   Clear
11:53 PM 42.8 °F 35.4 °F 23.0 °F 46% 29.73 in 10.0 mi West 15.0 mph - N/A   Clear